La Cellera de Ter (La Selva)





Hora UTC 21:15
Temperatura 5.2 ºC
Humitat 89.0 %
Pressió 1003.8 hPa
Pluja 2.6 mm
Velocitat vent 0.0 km/h
Direcció vent

Dades diàries 2024-02-23



Hora UTC (hivern +1h; estiu +2h)
Temperatura (ºC) Humitat (%) Pressió (hPa) Velocitat vent (km/h) Precipitació (mm)
Hora UTC Aire Humitat Pressió Vel. Dir. Vel. Max Dir. Intent. màx 5 min.
00:05 10.9 82.0 1002.1 0.0 0.0 0.0
00:15 10.7 82.0 1002.3 1.6 8.0 0.6
00:25 10.5 82.0 1002.4 1.6 8.0 0.8
00:35 10.1 82.0 1002.5 4.8 9.7 0.2
00:45 9.6 84.0 1002.4 6.4 12.9 0.2
00:55 9.2 86.0 1002.1 8.0 12.9 0.0
01:05 9.0 86.0 1002.2 6.4 12.9 0.0
01:15 8.7 87.0 1002.0 6.4 14.5 0.0
01:25 8.6 87.0 1002.1 9.7 17.7 0.0
01:35 8.4 88.0 1002.3 6.4 17.7 0.0
01:45 8.3 88.0 1002.8 4.8 17.7 0.0
01:55 8.3 88.0 1002.4 4.8 17.7 0.0
02:05 8.3 88.0 1002.4 3.2 17.7 0.0
02:15 8.1 88.0 1002.1 6.4 17.7 0.0
02:25 8.2 88.0 1002.1 3.2 17.7 0.0
02:35 8.2 89.0 1001.7 4.8 17.7 0.0
02:45 8.1 89.0 1002.0 3.2 17.7 0.0
02:55 7.8 88.0 1002.1 1.6 17.7 0.0
03:05 7.7 88.0 1002.0 8.0 17.7 0.0
03:15 7.8 88.0 1001.8 3.2 17.7 0.0
03:25 7.8 88.0 1001.9 1.6 17.7 0.0
03:35 7.7 88.0 1001.9 0.0 17.7 0.0
03:45 7.7 88.0 1001.9 0.0 17.7 0.0
03:55 7.6 88.0 1002.0 0.0 17.7 0.0
04:05 7.6 88.0 1002.2 0.0 17.7 0.0
04:15 7.6 88.0 1002.1 1.6 17.7 0.0
04:25 7.6 89.0 1002.2 1.6 17.7 0.0
04:35 7.7 89.0 1002.5 0.0 17.7 0.0
04:45 7.6 88.0 1002.5 3.2 17.7 0.6
04:55 7.3 87.0 1002.6 4.8 17.7 0.2
05:05 7.2 88.0 1002.5 3.2 17.7 0.0
05:15 7.1 87.0 1002.5 3.2 17.7 0.0
05:25 7.0 87.0 1002.5 1.6 17.7 0.0
05:35 6.9 87.0 1002.5 3.2 17.7 0.0
05:45 6.9 87.0 1002.5 1.6 17.7 0.0
05:55 6.9 86.0 1002.6 0.0 17.7 0.0
06:05 6.9 87.0 1002.7 0.0 17.7 0.0
06:15 6.8 88.0 1002.7 0.0 17.7 0.0
06:25 6.7 88.0 1002.8 0.0 17.7 0.0
06:35 6.7 89.0 1003.1 0.0 17.7 0.0
06:45 6.7 89.0 1003.1 0.0 17.7 0.0
06:55 6.6 90.0 1002.9 0.0 17.7 0.0
07:05 6.6 90.0 1003.3 0.0 17.7 0.0
07:15 6.7 90.0 1003.4 1.6 17.7 0.0
07:25 6.7 91.0 1003.6 1.6 17.7 0.0
07:35 6.8 91.0 1003.6 0.0 17.7 0.0
07:45 6.9 91.0 1003.7 0.0 17.7 0.0
07:55 6.9 90.0 1004.0 3.2 17.7 0.0
08:05 6.9 90.0 1004.0 1.6 17.7 0.0
08:15 7.2 90.0 1004.1 0.0 17.7 0.0
08:25 7.3 90.0 1004.1 1.6 17.7 0.0
08:35 7.7 91.0 1003.9 1.6 17.7 0.0
08:45 7.9 88.0 1004.0 1.6 17.7 0.0
08:55 8.1 89.0 1004.1 3.2 17.7 0.0
09:05 9.0 88.0 1003.9 1.6 17.7 0.0
09:15 9.6 83.0 1003.8 0.0 17.7 0.0
09:25 10.6 79.0 1003.6 1.6 17.7 0.0
09:35 10.9 75.0 1003.7 3.2 17.7 0.0
09:45 11.0 72.0 1003.5 3.2 17.7 0.0
09:55 11.1 68.0 1003.6 3.2 17.7 0.0
10:05 11.5 66.0 1003.6 4.8 17.7 0.0
10:15 11.8 62.0 1003.5 6.4 19.3 0.0
10:25 11.6 58.0 1003.6 12.9 33.8 0.0
10:35 11.2 59.0 1003.6 9.7 33.8 0.0
10:45 11.8 60.0 1003.5 4.8 33.8 0.0
10:55 11.8 58.0 1003.4 3.2 33.8 0.0
11:05 12.3 54.0 1003.3 1.6 33.8 0.0
11:15 12.3 54.0 1003.4 3.2 33.8 0.0
11:25 12.3 53.0 1003.3 4.8 33.8 0.0
11:35 12.0 53.0 1003.3 8.0 33.8 0.0
11:45 12.2 52.0 1003.1 8.0 33.8 0.0
11:55 12.4 50.0 1002.9 6.4 33.8 0.0
12:05 13.1 48.0 1002.7 1.6 33.8 0.0
12:15 13.3 49.0 1002.6 1.6 33.8 0.0
12:25 13.4 44.0 1002.5 9.7 33.8 0.0
12:35 13.5 44.0 1002.3 6.4 33.8 0.0
12:45 13.4 44.0 1002.1 11.3 33.8 0.0
12:55 13.6 42.0 1002.0 16.1 33.8 0.0
13:05 13.3 43.0 1002.0 20.9 35.4 0.0
13:15 13.4 42.0 1001.9 14.5 38.6 0.0
13:25 13.6 42.0 1001.8 9.7 38.6 0.0
13:35 13.8 42.0 1001.6 9.7 38.6 0.0
13:45 14.1 40.0 1001.4 8.0 38.6 0.0
13:55 14.3 40.0 1001.5 4.8 38.6 0.0
14:05 14.4 40.0 1001.4 6.4 38.6 0.0
14:15 14.5 39.0 1001.4 9.7 38.6 0.0
14:25 14.8 39.0 1001.3 8.0 38.6 0.0
14:35 15.0 39.0 1001.3 12.9 38.6 0.0
14:45 14.9 38.0 1001.2 12.9 38.6 0.0
14:55 15.2 37.0 1001.2 4.8 38.6 0.0
15:05 14.1 46.0 1001.4 19.3 38.6 0.0
15:15 13.7 47.0 1001.7 11.3 38.6 0.0
15:25 13.6 48.0 1001.7 9.7 38.6 0.0
15:35 13.3 50.0 1001.7 4.8 38.6 0.0
15:45 12.9 51.0 1001.9 4.8 38.6 0.0
15:55 12.7 54.0 1002.2 1.6 38.6 0.0
16:05 12.1 58.0 1002.3 3.2 38.6 0.0
16:15 11.6 61.0 1002.3 6.4 38.6 0.0
16:25 11.5 63.0 1002.4 1.6 38.6 0.0
16:35 11.3 62.0 1002.6 3.2 38.6 0.0
16:45 11.0 64.0 1002.6 4.8 38.6 0.0
16:55 10.9 64.0 1002.6 1.6 38.6 0.0
17:05 10.8 65.0 1002.7 1.6 38.6 0.0
17:15 10.6 67.0 1002.9 1.6 38.6 0.0
17:25 10.4 67.0 1003.0 3.2 38.6 0.0
17:35 10.3 68.0 1003.1 1.6 38.6 0.0
17:45 9.9 69.0 1003.2 3.2 38.6 0.0
17:55 9.7 71.0 1003.4 1.6 38.6 0.0
18:05 9.4 73.0 1003.6 0.0 38.6 0.0
18:15 9.2 73.0 1003.8 0.0 38.6 0.0
18:25 8.9 74.0 1004.0 0.0 38.6 0.0
18:35 8.7 76.0 1003.9 1.6 38.6 0.0
18:45 8.3 76.0 1004.0 1.6 38.6 0.0
18:55 8.0 78.0 1004.0 0.0 38.6 0.0
19:05 7.7 80.0 1004.0 0.0 38.6 0.0
19:15 7.3 79.0 1004.0 1.6 38.6 0.0
19:25 7.2 82.0 1004.0 0.0 38.6 0.0
19:35 7.0 83.0 1004.0 0.0 38.6 0.0
19:45 6.8 84.0 1004.0 3.2 38.6 0.0
19:55 6.6 84.0 1004.1 1.6 38.6 0.0
20:05 6.3 86.0 1004.1 1.6 38.6 0.0
20:15 6.1 87.0 1004.1 1.6 38.6 0.0
20:25 5.9 87.0 1004.1 1.6 38.6 0.0
20:35 5.7 87.0 1004.2 1.6 38.6 0.0
20:45 5.7 88.0 1004.0 1.6 38.6 0.0
20:55 5.6 88.0 1004.1 1.6 38.6 0.0
21:05 5.2 88.0 1004.0 0.0 38.6 0.0
21:15 5.2 89.0 1003.8 0.0 38.6 0.0
Màxima 15.2 91.0 1004.2 20.9 38.6 0.8
Mínima 5.1 37.0 1001.2
Total 2.6